Current Version              Previous Version:    01  02  03  04  05  06  07  08  09  10  11  12  13  14  15  16  17  18  19  20  21  22  23  24  25  26  27  28  29  30  
   31  32  33  34  35  36  37  38  39  40  41  42  43  44  45  46  47  48  49  50  51  52  53  54  55  56  57  58  59  60  

[Printable]
475
ASUS44 KLUB 301810
RWRTX
WEST TEXAS WEATHER ROUNDUP
NATIONAL WEATHER SERVICE LUBBOCK TX
100 PM CDT WED JUL 30 2014

NOTE: "FAIR" INDICATES FEW OR NO CLOUDS BELOW 12,000 FEET WITH NO
SIGNIFICANT WEATHER AND/OR OBSTRUCTIONS TO VISIBILITY.

TXZ004-006>008-010-012-014-016-OKZ002-301900-
TEXAS PANHANDLE/OKLAHOMA PANHANDLE

CITY           SKY/WX    TMP DP  RH WIND       PRES   REMARKS
AMARILLO       PTSUNNY   78  65  63 N13       30.09F
BORGER         CLOUDY    78  64  61 NW13G20   30.07S
CANADIAN       CLOUDY    71  66  86 SW8       30.03S
DALHART        PTSUNNY   74  61  63 N22G32    30.15S
DUMAS          PTSUNNY   75  62  65 N20G26    30.11F
GUYMON         CLOUDY    69  64  84 N22G30    30.09S
HEREFORD       PTSUNNY   81  66  59 N13       30.11F
PAMPA          CLOUDY    71  65  80 W7        30.08F
PERRYTON       CLOUDY    68  66  94 SW5       30.05S
$$

TXZ026-029-035-045-048-301900-
SOUTHERN PANHANDLE/SOUTH PLAINS/ROLLING PLAINS

CITY           SKY/WX    TMP DP  RH WIND       PRES   REMARKS
CHILDRESS      FAIR      77  69  76 VRB7      30.02F
SEMINOLE       FAIR      96  52  22 W10G17    30.04F
LUBBOCK        FAIR      89  60  37 W14G20    30.04F
PLAINVIEW      FAIR      85  62  46 NW8       30.05F
SNYDER         FAIR      88  64  44 S12G22    30.01F
$$

TXZ052-054-060>062-072-078-127-140-154-169-301900-
PERMIAN BASIN/CONCHO VALLEY/BIG COUNTRY/EDWARDS PLATEAU

CITY           SKY/WX    TMP DP  RH WIND       PRES   REMARKS
ABILENE        FAIR      88  62  41 S13G24    30.00F
BIG SPRING     FAIR     100  56  23 S17G23    30.01F HX  98
BRADY          SUNNY     93  59  31 S15       30.02F
BROWNWOOD      FAIR      91  57  31 S13G22    30.01F
JUNCTION       FAIR      94  56  27 S13G20    30.02F
MIDLAND        FAIR      95  55  26 S10G21    30.00F
ODESSA         FAIR      94  52  24 S15G23    30.02F
SAN ANGELO     FAIR      96  55  25 S22G29    29.99F
SONORA         FAIR      93  55  27 S12G26    30.07F
SWEETWATER     FAIR      92  58  31 S21G26    30.03F
WINK           FAIR      98  50  19 W5        29.97F HX  95
$$

TXZ055-058-074-075-080-082-301900-
FAR WEST/SOUTHWEST MOUNTAINS/TRANS PECOS

CITY           SKY/WX    TMP DP  RH WIND       PRES   REMARKS
ALPINE         FAIR      92  51  24 S12G18    30.19F
DRYDEN           N/A     96  54  24 S7        30.00F
EL PASO        MOSUNNY   93  57  29 VRB7      30.09F
FORT STOCKTON  FAIR      97  49  19 VRB7      30.01F
GUADALUPE PASS SUNNY     89  54  30 SW20G28   30.21F
MARFA          FAIR      90  52  27 S6G17     30.20F
PECOS          FAIR      97  51  21 NE3       29.97F
PRESIDIO       FAIR      96  53  23 S7        30.03F
$$

TXZ014-016-019-021>030-083-301900
TEXAS TECH WEST TEXAS MESONET/TEXAS PANHANDLE/NORTHERN SOUTH PLAINS

CITY           SKY/WX    TMP DP  RH WIND       PRES   REMARKS
ABERNATHY 5ENE   N/A     87  59  38 NW7       30.07S
AMARILLO 9NNE    N/A     79  66  65 N16       30.08S
AMARILLO 7SSE    N/A     82  65  56 N14       30.10S
AMHERST 1NE      N/A     84  63  48 NW9       30.08F
BOOTLEG 11WNW    N/A     78  62  58 N14       30.17S
CANADIAN 6E      N/A     69  66  90 S5        30.03S
CAPROCK CYN SP   N/A     77  69  74 N3        30.05F
CHILDRESS 2NNE   N/A     78  69  73 SE10      30.01F
CLARENDON 2WSW   N/A     76  66  71 SW5       30.05F
CLAUDE 12SW      N/A     75  68  78 S3        30.08F
DIMMITT 2NE      N/A     78  67  68 NW12      30.11S
FLOYDADA 2NNE    N/A     86  58  38 W9        30.05F
FRIONA 2NE       N/A     80  63  56 N13       30.13S
GOODLETT 3W      N/A     77  68  73 E8        30.00F
HART 3N          N/A     79  66  63 NW8       30.09F
HEREFORD 2NW     N/A     80  63  57 N14       30.11F
MCLEAN 1E        N/A     73  65  78 SW7       30.05S
MEMPHIS 1NE      N/A     76  67  74 SW2       30.03S
MULESHOE 2SSW    N/A     83  64  51 NW8       30.09F
OLTON 6S         N/A     84  61  45 NW8       30.07F
PALO DURO SP     N/A     81  65  57 N7        30.09F
PAMPA 2E         N/A     71  66  85 SW6       30.07F
PLAINVIEW 1S     N/A     85  62  46 NW9       30.06S
SILVERTON 7ESE   N/A     79  69  70 E7        30.06F
TULIA 2ENE       N/A     80  67  65 NW8       30.08S
TURKEY 2WSW      N/A     77  68  74 NE3       30.03F
UMBARGER 3NNE    N/A     81  66  59 N14       30.11S
$$

TXZ033>036-039>041-045>048-301900
TEXAS TECH WEST TEXAS MESONET/SOUTH PLAINS

CITY           SKY/WX    TMP DP  RH WIND       PRES   REMARKS
AIKEN 3WSW       N/A     86  63  46 N2        30.07S
ANTON 6SSW       N/A     85  64  48 NW6       30.06F
BROWNFIELD 2S    N/A     92  52  26 W6        30.04F
DENVR CTY 7WNW   N/A     93  49  22 W5        30.04F
GAIL 2ESE        N/A     94  55  27 S12       29.98F
LAMESA 2SE       N/A     94  53  25 S9        30.02F
LEVELLAND 4S     N/A     86  60  41 N6        30.06F
LUBBOCK 3WNW     N/A     87  59  38 W3        30.05F
MORTON 1ENE      N/A     84  64  51 NW9       30.08F
ODONNELL 1N      N/A     93  51  23 SW9       30.02F
PLAINS 3N        N/A     88  61  40 NW10      30.06F
RALLS 1SE        N/A     88  58  36 W9        30.05S
REESE CENTER     N/A     84  60  44 NW8       30.06S
SEAGRAVES 1SW    N/A     94  53  25 NW8       30.03F
SEMINOLE 2NNE    N/A     96  51  22 W6        30.02F
SLATON 2NE       N/A     89  53  29 SW6       30.03F
SNYDER 3E        N/A     91  61  36 S16       29.99F
SUNDOWN 8SW      N/A     88  62  42 NW8       30.06F
TAHOKA 3NNE      N/A     92  54  27 SW3       30.02F
WOLFFORTH 6SSW   N/A     88  58  35 NW7       30.05S
$$

TXZ031-032-036>038-042>044-301900-
TEXAS TECH WEST TEXAS MESONET/ROLLING PLAINS

CITY           SKY/WX    TMP DP  RH WIND       PRES   REMARKS
ASPERMONT 3NE    N/A     89  65  44 S13       29.97F
FLUVANNA 3WNW    N/A     91  56  30 S12       30.00F
GRAHAM 5SSW      N/A     90  55  30 S8        30.01F
GUTHRIE 10WSW    N/A     90  64  42 SW13G25   29.98S
HASKELL 1NW      N/A     86  62  44 S15       29.97F
JAYTON 1SSE      N/A     88  62  42 S16       29.98F
KNOX CITY 3NW    N/A     86  62  44 S14       29.97F
LK A HENRY 1NW   N/A     94  59  30 SW9       29.97F
NORTHFIELD 1S    N/A     80  69  69 N5        30.02S
ODELL 4ENE       N/A     74  71  89 SE14      30.00F
PADUCAH 10SW     N/A     86  66  50 SE5       29.99F
POST 1NE         N/A     93  54  26 S6        30.00F
RRING SPRGS 3N   N/A     88  63  43 S5        30.02F
SEYMOUR 3NW      N/A     87  63  45 SE6       29.97S
SPUR 1W          N/A     92  56  30 SW10G23   29.98F
WEINERT 2NNE     N/A     86  65  49 S15       29.97F
WHITE RVR 6NE    N/A     91  59  34 S10       30.01F
$$

TXZ052-054-060>062-072-078-127-140-154-169-301900-
TEXAS TECH WEST TEXAS MESONET/PERMIAN BASIN/
CONCHO VALLEY/BIG COUNTRY/EDWARDS PLATEAU

CITY           SKY/WX    TMP DP  RH WIND       PRES   REMARKS
COYANOSA 2N      N/A    101  50  18 NW7       29.97F HX  98
JUNCTION 1SSW    N/A     94  58  29 S13       30.02F
MERTZON 3NNE     N/A     92  61  35 S21       30.00F
SAN ANGELO 7NW   N/A     95  54  25 S15G24    29.99F
STRLNG CT 4WSW   N/A     90  63  39 S18       30.01F
ST LAWRNCE 5SW   N/A     92  52  25 S16       30.01F
SWEETWATR 11SW   N/A     93  63  36 S14       30.01F
WALL 1E          N/A     95  55  26 S16       30.00F
$$

TXZ055-058-074-075-080-082-301900-
TEXAS TECH WEST TEXAS MESONET/FAR WEST/SOUTHWEST MOUNTAINS/TRANS PECOS

CITY           SKY/WX    TMP DP  RH WIND       PRES   REMARKS
PRSMN GAP BBNP   N/A     97  51  21 SW8       30.03F
GUADLPE MTN NP   N/A     86  50  29 W20       30.22S
$$